Location: B?jaj?g
(11.7167°N, 92.6667°E)
Time: 01:34:05
(UTC+00:00)

SJ-11-01 - Pass Details

Date: 18 September 2020
Orbit: 684 x 701 km, 98.0° (Epoch: 30 October)

Event Time Altitude Azimuth Distance (km) Brightness Sun altitude
Exits shadow 13:00:50 17° 151° (SSE) 1,712 6.0 -18.6°
Maximum altitude 13:04:18 56° 78° (ENE) 826 4.3 -19.5°
Drops below altitude 10° 13:08:55 10° 360° (N) 2,149 6.9 -20.6°
Sets 13:11:11 0° 356° (N) 3,064 7.8 -21.1°
